Flag Weather past 2 weeks in Nadiad, Gujarat, India

Now
64 °F

Haze.


Feels Like: 64 °F
Forecast: 66 / 92 °F
Wind: No wind

Location: Ahmadabad Airport

Current Time: Nov 24, 2014 at 2:51:04 AM

Latest Report: Nov 24, 2014 at 2:10 AM


Visibility: 2 mi

Pressure: 29.89 "Hg

Humidity: 78%

Dew point: 57 °F

Location of NadiadLocation

Historic Weather in Nadiad — Graph

°F

Nadiad temperature yesterday

Maximum temperature yesterday: 91 °F (at 1:40 PM)
Minimum temperature yesterday: 61 °F (at 6:10 AM)
Average temperature yesterday: 76 °F

Past Weeks' High & Low Weather Summary

 TemperatureHumidityPressure
High97 °F (Nov 13, 2:10 PM)89% (Nov 16, 5:40 AM)30.04 "Hg (Nov 16, 5:40 AM)
Low61 °F (Nov 23, 6:10 AM)23% (Nov 20, 12:40 PM)29.80 "Hg (Nov 11, 3:10 PM)
Average80 °F56%29.91 "Hg
* Reported Nov 9 12:40 AM — Nov 24 1:10 AM, Nadiad, Weather by CustomWeather, © 2014

Note: Actual official high and low records may vary slightly from our data, if they occured in-between our weather recording intervals... More about our weather records

Advertising

Nadiad weather history for previous 24 hours

 ConditionsComfort  
Time TempWeatherWind HumidityBarometerVisibility
1:10 AM
Nov 24
66 °FHaze.No wind78%29.92 "Hg2 mi
12:40 AM66 °FHaze.No wind78%29.92 "Hg2 mi
11:40 PM
Nov 23
70 °FHaze.No wind73%29.92 "Hg2 mi
11:10 PM70 °FHaze.2 mph69%29.92 "Hg2 mi
10:40 PM70 °FHaze.2 mph69%29.92 "Hg2 mi
10:10 PM70 °FHaze.2 mph69%29.92 "Hg2 mi
9:40 PM72 °FHaze.No wind65%29.92 "Hg2 mi
9:10 PM72 °FClear.2 mph69%29.92 "Hg2 mi
8:40 PM72 °FClear.2 mph61%29.92 "Hg2 mi
8:10 PM73 °FClear.No wind50%29.92 "Hg2 mi
7:40 PM75 °FClear.No wind50%29.89 "Hg2 mi
7:10 PM77 °FClear.No wind47%29.89 "Hg2 mi
6:40 PM79 °FClear.No wind48%29.86 "Hg2 mi
6:10 PM82 °FClear.No wind40%29.86 "Hg2 mi
5:10 PM88 °FClear.2 mph33%29.83 "Hg4 mi
4:40 PM91 °FClear.3 mph28%29.83 "Hg4 mi
4:10 PM91 °FClear.3 mph28%29.83 "Hg4 mi
3:40 PM91 °FClear.3 mph28%29.83 "Hg4 mi
2:40 PM91 °FClear.6 mph30%29.83 "Hg4 mi
2:10 PM91 °FClear.3 mph28%29.86 "Hg4 mi
1:40 PM91 °FClear.3 mph30%29.86 "Hg4 mi
1:10 PM90 °FClear.3 mph33%29.89 "Hg4 mi
12:40 PM90 °FClear.6 mph33%29.92 "Hg4 mi
12:10 PM88 °FClear.3 mph38%29.92 "Hg3 mi
11:40 AM86 °FClear.7 mph40%29.95 "Hg3 mi
10:40 AM82 °FClear.3 mph45%29.98 "Hg2 mi
10:10 AM81 °FClear.3 mph45%29.98 "Hg2 mi
9:10 AM72 °FHaze.2 mph61%29.98 "Hg1 mi
8:40 AM68 °FHaze.3 mph69%29.95 "Hg1 mi
8:10 AM64 °FHaze.3 mph78%29.95 "Hg1 mi
7:40 AM63 °FHaze.3 mph77%29.95 "Hg1 mi
6:10 AM61 °FHaze.2 mph83%29.92 "Hg2 mi
5:40 AM63 °FHaze.2 mph83%29.89 "Hg2 mi
5:10 AM63 °FHaze.2 mph88%29.89 "Hg2 mi
4:40 AM63 °FHaze.2 mph88%29.89 "Hg2 mi
4:10 AM64 °FHaze.No wind83%29.89 "Hg2 mi
2:40 AM64 °FHaze.No wind83%29.89 "Hg2 mi
2:10 AM68 °FHaze.No wind69%29.89 "Hg2 mi
Weather by CustomWeather, © 2014

See weather overviewHow to use our weather pages